Zurück zum Katalog

SL-14 DEB

AktivPO
NORAD 26003·DEBRIS·🇷🇺 Russia

Gestartet Sep 28, 1991 von Plesetsk Cosmodrome

Loading…

Nächste Überflüge (nächste 24 Stunden)

TLE

AktuellSource: Space-Track

Epoche: Sep 14, 2026, 01:00 UTC

1 26003U 91068N   26257.04217990  .00001296  00000-0  64097-2 0  9995
2 26003  82.7195 104.1317 0061233 142.1139  11.4853 12.70210709235885

Verfolge SL-14 DEB in Echtzeit mit AllMySat

Download on the App Store